Time,TemperatureF,DewpointF,PressureIn,WindDirection,WindDirectionDegrees,WindSpeedMPH,WindSpeedGustMPH,Humidity,HourlyPrecipIn,Conditions,Clouds,dailyrainin,SoftwareType,DateUTC
2013-01-14 00:02:00,72.5,60.9,30.09,ESE,113,0.0,0.0,67,0.00,,OVC,0.00,WeatherDisplay:10.37,2013-01-14 05:02:00,
2013-01-14 00:03:00,72.3,60.7,30.09,ESE,121,0.0,0.0,67,0.00,,OVC,0.00,WeatherDisplay:10.37,2013-01-14 05:03:00,
2013-01-14 00:04:00,72.3,60.7,30.09,ESE,121,0.0,0.0,67,0.00,,OVC,0.00,WeatherDisplay:10.37,2013-01-14 05:04:00,
2013-01-14 00:09:00,72.3,60.7,30.09,SE,128,0.0,0.0,67,0.00,,OVC,0.00,WeatherDisplay:10.37,2013-01-14 05:09:00,
2013-01-14 00:14:00,72.1,60.5,30.09,SE,139,0.0,0.0,67,0.00,,OVC,0.00,WeatherDisplay:10.37,2013-01-14 05:14:00,
2013-01-14 00:19:00,72.1,60.5,30.09,SE,134,0.0,0.0,67,0.00,,OVC,0.00,WeatherDisplay:10.37,2013-01-14 05:19:00,
2013-01-14 00:24:00,72.0,60.9,30.09,SE,134,0.0,0.0,68,0.00,,OVC,0.00,WeatherDisplay:10.37,2013-01-14 05:24:00,
2013-01-14 00:29:00,71.8,60.7,30.09,SE,135,0.0,0.0,68,0.00,,OVC,0.00,WeatherDisplay:10.37,2013-01-14 05:29:00,
2013-01-14 00:34:00,71.8,61.1,30.09,SE,136,0.0,0.0,69,0.00,,OVC,0.00,WeatherDisplay:10.37,2013-01-14 05:34:00,
2013-01-14 00:39:00,72.0,61.3,30.09,SE,135,0.0,0.0,69,0.00,,OVC,0.00,WeatherDisplay:10.37,2013-01-14 05:39:00,
2013-01-14 00:44:00,72.0,61.3,30.10,SE,135,0.0,0.0,69,0.00,,OVC,0.00,WeatherDisplay:10.37,2013-01-14 05:44:00,
2013-01-14 00:49:00,71.8,61.1,30.10,SE,135,0.0,0.0,69,0.00,,OVC,0.00,WeatherDisplay:10.37,2013-01-14 05:49:00,
2013-01-14 00:54:00,71.6,60.9,30.10,SE,135,0.0,0.0,69,0.00,,OVC,0.00,WeatherDisplay:10.37,2013-01-14 05:54:00,
2013-01-14 00:59:00,71.5,60.8,30.10,SE,135,0.0,0.0,69,0.00,,OVC,0.00,WeatherDisplay:10.37,2013-01-14 05:59:00,
2013-01-14 01:04:00,71.1,60.8,30.10,SE,136,0.0,0.0,70,0.00,,OVC,0.00,WeatherDisplay:10.37,2013-01-14 06:04:00,
2013-01-14 01:09:00,70.8,60.9,30.10,SE,135,0.0,0.0,71,0.00,,OVC,0.00,WeatherDisplay:10.37,2013-01-14 06:09:00,
2013-01-14 01:14:00,70.4,60.5,30.10,SE,136,0.0,0.0,71,0.00,,OVC,0.00,WeatherDisplay:10.37,2013-01-14 06:14:00,
2013-01-14 01:19:00,70.3,60.8,30.10,SE,136,0.0,0.0,72,0.00,,OVC,0.00,WeatherDisplay:10.37,2013-01-14 06:19:00,
2013-01-14 01:24:00,69.9,60.8,30.10,SE,136,0.0,0.0,73,0.00,,OVC,0.00,WeatherDisplay:10.37,2013-01-14 06:24:00,
2013-01-14 01:29:00,69.9,60.8,30.10,SE,137,0.0,0.0,73,0.00,,OVC,0.00,WeatherDisplay:10.37,2013-01-14 06:29:00,
2013-01-14 01:34:00,70.1,61.0,30.10,SE,137,0.0,0.0,73,0.00,,OVC,0.00,WeatherDisplay:10.37,2013-01-14 06:34:00,
2013-01-14 01:39:00,70.3,61.2,30.10,SE,137,0.0,0.0,73,0.00,,OVC,0.00,WeatherDisplay:10.37,2013-01-14 06:39:00,
2013-01-14 01:44:00,70.4,60.9,30.10,SE,139,0.0,0.0,72,0.00,,OVC,0.00,WeatherDisplay:10.37,2013-01-14 06:44:00,
2013-01-14 01:49:00,70.4,60.9,30.10,SE,140,0.0,0.0,72,0.00,,OVC,0.00,WeatherDisplay:10.37,2013-01-14 06:49:00,
2013-01-14 01:54:00,70.6,61.5,30.10,SE,140,0.0,0.0,73,0.00,,OVC,0.00,WeatherDisplay:10.37,2013-01-14 06:54:00,
2013-01-14 01:59:00,70.6,61.5,30.10,SE,140,0.0,0.0,73,0.00,,OVC,0.00,WeatherDisplay:10.37,2013-01-14 06:59:00,
2013-01-14 02:04:00,70.6,61.9,30.10,SE,140,0.0,0.0,74,0.00,,OVC,0.00,WeatherDisplay:10.37,2013-01-14 07:04:00,
2013-01-14 02:09:00,70.4,61.7,30.10,SE,140,0.0,0.0,74,0.00,,OVC,0.00,WeatherDisplay:10.37,2013-01-14 07:09:00,
2013-01-14 02:14:00,70.3,61.6,30.10,SE,140,0.0,0.0,74,0.00,,OVC,0.00,WeatherDisplay:10.37,2013-01-14 07:14:00,
2013-01-14 02:19:00,69.9,61.6,30.10,SE,140,0.0,0.0,75,0.00,,OVC,0.00,WeatherDisplay:10.37,2013-01-14 07:19:00,
2013-01-14 02:24:00,69.6,61.3,30.10,SE,140,0.0,0.0,75,0.00,,OVC,0.00,WeatherDisplay:10.37,2013-01-14 07:24:00,
2013-01-14 02:29:00,69.3,61.4,30.10,SE,140,0.0,0.0,76,0.00,,OVC,0.00,WeatherDisplay:10.37,2013-01-14 07:29:00,
2013-01-14 02:34:00,68.9,61.0,30.10,SE,140,0.0,0.0,76,0.00,,OVC,0.00,WeatherDisplay:10.37,2013-01-14 07:34:00,
2013-01-14 02:39:00,68.6,61.1,30.10,SE,140,0.0,0.0,77,0.00,,OVC,0.00,WeatherDisplay:10.37,2013-01-14 07:39:00,
2013-01-14 02:44:00,68.4,60.9,30.10,SE,140,0.0,0.0,77,0.00,,OVC,0.00,WeatherDisplay:10.37,2013-01-14 07:44:00,
2013-01-14 02:49:00,68.1,61.0,30.10,SE,140,0.0,0.0,78,0.00,,OVC,0.00,WeatherDisplay:10.37,2013-01-14 07:49:00,
2013-01-14 02:54:00,67.8,60.7,30.10,SE,140,0.0,0.0,78,0.00,,OVC,0.00,WeatherDisplay:10.37,2013-01-14 07:54:00,
2013-01-14 02:59:00,67.6,60.5,30.10,SE,140,0.0,0.0,78,0.00,,OVC,0.00,WeatherDisplay:10.37,2013-01-14 07:59:00,
2013-01-14 03:04:00,67.3,60.6,30.10,SE,140,0.0,0.0,79,0.00,,OVC,0.00,WeatherDisplay:10.37,2013-01-14 08:04:00,
2013-01-14 03:10:00,67.1,60.7,30.10,SE,140,0.0,0.0,80,0.00,,OVC,0.00,WeatherDisplay:10.37,2013-01-14 08:10:00,
2013-01-14 03:15:00,67.1,60.7,30.10,SE,140,0.0,0.0,80,0.00,,OVC,0.00,WeatherDisplay:10.37,2013-01-14 08:15:00,
2013-01-14 03:20:00,66.9,60.9,30.10,SE,140,0.0,0.0,81,0.00,,OVC,0.00,WeatherDisplay:10.37,2013-01-14 08:20:00,
2013-01-14 03:25:00,66.8,60.8,30.10,SE,140,0.0,0.0,81,0.00,,OVC,0.00,WeatherDisplay:10.37,2013-01-14 08:25:00,
2013-01-14 03:30:00,66.6,60.6,30.10,SE,140,0.0,0.0,81,0.00,,OVC,0.00,WeatherDisplay:10.37,2013-01-14 08:30:00,
2013-01-14 03:35:00,66.4,60.7,30.10,SE,140,0.0,0.0,82,0.00,,OVC,0.00,WeatherDisplay:10.37,2013-01-14 08:35:00,
2013-01-14 03:40:00,66.3,60.6,30.10,SE,140,0.0,0.0,82,0.00,,OVC,0.00,WeatherDisplay:10.37,2013-01-14 08:40:00,
2013-01-14 03:45:00,66.3,60.6,30.09,SE,140,0.0,0.0,82,0.00,,OVC,0.00,WeatherDisplay:10.37,2013-01-14 08:45:00,
2013-01-14 03:50:00,66.3,61.0,30.09,SE,140,0.0,0.0,83,0.00,,OVC,0.00,WeatherDisplay:10.37,2013-01-14 08:50:00,
2013-01-14 03:55:00,66.1,60.8,30.09,SE,140,0.0,0.0,83,0.00,,OVC,0.00,WeatherDisplay:10.37,2013-01-14 08:55:00,
2013-01-14 04:00:00,66.0,60.7,30.09,SE,140,0.0,0.0,83,0.00,,OVC,0.00,WeatherDisplay:10.37,2013-01-14 09:00:00,
2013-01-14 04:05:00,65.8,60.5,30.09,SE,140,0.0,0.0,83,0.00,,OVC,0.00,WeatherDisplay:10.37,2013-01-14 09:05:00,
2013-01-14 04:10:00,65.6,60.3,30.09,SE,140,0.0,0.0,83,0.00,,OVC,0.00,WeatherDisplay:10.37,2013-01-14 09:10:00,
2013-01-14 04:15:00,65.5,60.5,30.09,SE,140,0.0,0.0,84,0.00,,OVC,0.00,WeatherDisplay:10.37,2013-01-14 09:15:00,
2013-01-14 04:20:00,65.5,60.5,30.09,SE,140,0.0,0.0,84,0.00,,OVC,0.00,WeatherDisplay:10.37,2013-01-14 09:20:00,
2013-01-14 04:25:00,65.3,60.7,30.09,SE,140,0.0,0.0,85,0.00,,OVC,0.00,WeatherDisplay:10.37,2013-01-14 09:25:00,
2013-01-14 04:30:00,65.3,60.7,30.09,SE,140,0.0,0.0,85,0.00,,OVC,0.00,WeatherDisplay:10.37,2013-01-14 09:30:00,
2013-01-14 04:35:00,65.3,60.7,30.09,SE,140,0.0,0.0,85,0.00,,OVC,0.00,WeatherDisplay:10.37,2013-01-14 09:35:00,
2013-01-14 04:40:00,65.2,60.6,30.09,SE,140,0.0,0.0,85,0.00,,OVC,0.00,WeatherDisplay:10.37,2013-01-14 09:40:00,
2013-01-14 04:45:00,65.2,60.9,30.09,SE,140,0.0,0.0,86,0.00,,OVC,0.00,WeatherDisplay:10.37,2013-01-14 09:45:00,
2013-01-14 04:50:00,65.0,60.7,30.09,SE,140,0.0,0.0,86,0.00,,OVC,0.00,WeatherDisplay:10.37,2013-01-14 09:50:00,
2013-01-14 04:55:00,65.0,60.7,30.09,SE,140,0.0,0.0,86,0.00,,OVC,0.00,WeatherDisplay:10.37,2013-01-14 09:55:00,
2013-01-14 05:00:00,65.0,60.7,30.09,SE,140,0.0,0.0,86,0.00,,OVC,0.00,WeatherDisplay:10.37,2013-01-14 10:00:00,
2013-01-14 05:05:00,64.8,60.5,30.09,SE,140,0.0,0.0,86,0.00,,OVC,0.00,WeatherDisplay:10.37,2013-01-14 10:05:00,
2013-01-14 05:10:00,64.8,60.5,30.09,SE,140,0.0,0.0,86,0.00,,OVC,0.00,WeatherDisplay:10.37,2013-01-14 10:10:00,
2013-01-14 05:15:00,64.7,60.4,30.09,SE,140,0.0,0.0,86,0.00,,OVC,0.00,WeatherDisplay:10.37,2013-01-14 10:15:00,
2013-01-14 05:20:00,64.7,60.7,30.09,SE,140,0.0,0.0,87,0.00,,OVC,0.00,WeatherDisplay:10.37,2013-01-14 10:20:00,
2013-01-14 05:25:00,64.7,60.4,30.09,SE,140,0.0,0.0,86,0.00,,OVC,0.00,WeatherDisplay:10.37,2013-01-14 10:25:00,
2013-01-14 05:30:00,64.5,60.5,30.09,SE,140,0.0,0.0,87,0.00,,OVC,0.00,WeatherDisplay:10.37,2013-01-14 10:30:00,
2013-01-14 05:35:00,64.5,60.5,30.09,SE,140,0.0,0.0,87,0.00,,OVC,0.00,WeatherDisplay:10.37,2013-01-14 10:35:00,
2013-01-14 05:41:00,64.5,60.5,30.09,SE,140,0.0,0.0,87,0.00,,OVC,0.00,WeatherDisplay:10.37,2013-01-14 10:41:00,
2013-01-14 05:46:00,64.5,60.9,30.09,SE,140,0.0,0.0,88,0.00,,OVC,0.00,WeatherDisplay:10.37,2013-01-14 10:46:00,
2013-01-14 05:51:00,64.7,61.1,30.09,SE,140,0.0,0.0,88,0.00,,OVC,0.00,WeatherDisplay:10.37,2013-01-14 10:51:00,
2013-01-14 05:56:00,64.7,61.1,30.09,SE,140,0.0,0.0,88,0.00,,OVC,0.00,WeatherDisplay:10.37,2013-01-14 10:56:00,
2013-01-14 06:01:00,64.7,61.1,30.10,SE,140,0.0,0.0,88,0.00,,OVC,0.00,WeatherDisplay:10.37,2013-01-14 11:01:00,
2013-01-14 06:06:00,64.5,61.2,30.10,SE,140,0.0,0.0,89,0.00,,OVC,0.00,WeatherDisplay:10.37,2013-01-14 11:06:00,
2013-01-14 06:11:00,64.5,61.2,30.10,SE,140,0.0,0.0,89,0.00,,OVC,0.00,WeatherDisplay:10.37,2013-01-14 11:11:00,
2013-01-14 06:16:00,64.3,61.0,30.10,SE,140,0.0,0.0,89,0.00,,OVC,0.00,WeatherDisplay:10.37,2013-01-14 11:16:00,
2013-01-14 06:21:00,64.3,61.0,30.10,SE,140,0.0,0.0,89,0.00,,OVC,0.00,WeatherDisplay:10.37,2013-01-14 11:21:00,
2013-01-14 06:26:00,64.3,61.0,30.10,SE,140,0.0,0.0,89,0.00,,OVC,0.00,WeatherDisplay:10.37,2013-01-14 11:26:00,
2013-01-14 06:31:00,64.3,61.0,30.11,SE,140,0.0,0.0,89,0.00,,OVC,0.00,WeatherDisplay:10.37,2013-01-14 11:31:00,
2013-01-14 06:36:00,64.3,61.0,30.11,SE,140,0.0,0.0,89,0.00,,OVC,0.00,WeatherDisplay:10.37,2013-01-14 11:36:00,
2013-01-14 06:41:00,64.3,61.0,30.11,SE,140,0.0,0.0,89,0.00,,OVC,0.00,WeatherDisplay:10.37,2013-01-14 11:41:00,
2013-01-14 06:46:00,64.3,61.0,30.12,SE,140,0.0,0.0,89,0.00,,OVC,0.00,WeatherDisplay:10.37,2013-01-14 11:46:00,
2013-01-14 06:51:00,64.5,61.2,30.12,SE,140,0.0,0.0,89,0.00,,OVC,0.00,WeatherDisplay:10.37,2013-01-14 11:51:00,
2013-01-14 06:56:00,64.5,61.2,30.12,SE,140,0.0,0.0,89,0.00,,OVC,0.00,WeatherDisplay:10.37,2013-01-14 11:56:00,
2013-01-14 07:01:00,64.5,61.2,30.12,SE,140,0.0,0.0,89,0.00,,OVC,0.00,WeatherDisplay:10.37,2013-01-14 12:01:00,
2013-01-14 07:06:00,64.5,60.9,30.12,SE,140,0.0,0.0,88,0.00,,OVC,0.00,WeatherDisplay:10.37,2013-01-14 12:06:00,
2013-01-14 07:11:00,64.5,60.9,30.12,SE,140,0.0,0.0,88,0.00,,OVC,0.00,WeatherDisplay:10.37,2013-01-14 12:11:00,
2013-01-14 07:16:00,64.3,60.7,30.12,SE,140,0.0,0.0,88,0.00,,OVC,0.00,WeatherDisplay:10.37,2013-01-14 12:16:00,
2013-01-14 07:21:00,64.3,60.7,30.12,SE,140,0.0,0.0,88,0.00,,OVC,0.00,WeatherDisplay:10.37,2013-01-14 12:21:00,
2013-01-14 07:26:00,64.8,61.2,30.12,SE,140,0.0,0.0,88,0.00,,OVC,0.00,WeatherDisplay:10.37,2013-01-14 12:26:00,
2013-01-14 07:31:00,65.5,61.5,30.12,SE,140,0.0,0.0,87,0.00,,OVC,0.00,WeatherDisplay:10.37,2013-01-14 12:31:00,
2013-01-14 07:36:00,65.6,61.3,30.12,SE,141,0.0,0.0,86,0.00,,OVC,0.00,WeatherDisplay:10.37,2013-01-14 12:36:00,
2013-01-14 07:41:00,65.8,61.5,30.12,SE,141,0.0,0.0,86,0.00,,OVC,0.00,WeatherDisplay:10.37,2013-01-14 12:41:00,
2013-01-14 07:46:00,66.0,61.7,30.12,SE,140,0.0,0.0,86,0.00,,OVC,0.00,WeatherDisplay:10.37,2013-01-14 12:46:00,
2013-01-14 07:51:00,66.3,61.7,30.12,SE,140,0.0,0.0,85,0.00,,OVC,0.00,WeatherDisplay:10.37,2013-01-14 12:51:00,
2013-01-14 07:56:00,66.3,62.0,30.12,SE,140,0.0,0.0,86,0.00,,OVC,0.00,WeatherDisplay:10.37,2013-01-14 12:56:00,
2013-01-14 08:01:00,66.3,62.0,30.12,SE,140,0.0,0.0,86,0.00,,OVC,0.00,WeatherDisplay:10.37,2013-01-14 13:01:00,
2013-01-14 08:06:00,66.4,62.1,30.12,SE,140,0.0,0.0,86,0.00,,OVC,0.00,WeatherDisplay:10.37,2013-01-14 13:06:00,
2013-01-14 08:11:00,66.8,62.5,30.12,SE,140,0.0,0.0,86,0.00,,OVC,0.00,WeatherDisplay:10.37,2013-01-14 13:11:00,
2013-01-14 08:16:00,67.1,63.1,30.12,SE,140,0.0,0.0,87,0.00,,OVC,0.00,WeatherDisplay:10.37,2013-01-14 13:16:00,
2013-01-14 08:21:00,67.3,63.0,30.12,SE,138,0.0,0.7,86,0.00,,OVC,0.00,WeatherDisplay:10.37,2013-01-14 13:21:00,
2013-01-14 08:26:00,67.6,63.3,30.12,SE,136,0.0,0.0,86,0.00,,OVC,0.00,WeatherDisplay:10.37,2013-01-14 13:26:00,
2013-01-14 08:31:00,68.1,63.4,30.12,SE,137,0.0,0.0,85,0.00,,OVC,0.00,WeatherDisplay:10.37,2013-01-14 13:31:00,
2013-01-14 08:36:00,68.9,63.9,30.12,SE,137,0.0,0.0,84,0.00,,OVC,0.00,WeatherDisplay:10.37,2013-01-14 13:36:00,
2013-01-14 08:41:00,69.9,64.2,30.12,SE,133,1.1,1.1,82,0.00,,OVC,0.00,WeatherDisplay:10.37,2013-01-14 13:41:00,
2013-01-14 08:46:00,70.9,63.7,30.12,SE,145,11.5,11.5,78,0.00,,OVC,0.00,WeatherDisplay:10.37,2013-01-14 13:46:00,
2013-01-14 08:51:00,72.1,63.4,30.12,East,82,13.8,13.8,74,0.00,,OVC,0.00,WeatherDisplay:10.37,2013-01-14 13:51:00,
2013-01-14 08:56:00,73.0,63.4,30.12,ESE,102,11.5,11.5,72,0.00,,OVC,0.00,WeatherDisplay:10.37,2013-01-14 13:56:00,
2013-01-14 09:01:00,73.5,63.5,30.13,SE,146,0.0,0.0,71,0.00,,OVC,0.00,WeatherDisplay:10.37,2013-01-14 14:01:00,
2013-01-14 09:06:00,74.0,63.6,30.13,SSE,148,9.0,9.0,70,0.00,,OVC,0.00,WeatherDisplay:10.37,2013-01-14 14:06:00,
2013-01-14 09:11:00,74.6,63.8,30.13,SE,142,4.0,4.0,69,0.00,,OVC,0.00,WeatherDisplay:10.37,2013-01-14 14:11:00,
2013-01-14 09:16:00,75.1,63.8,30.13,SE,144,16.1,16.1,68,0.00,,OVC,0.00,WeatherDisplay:10.37,2013-01-14 14:16:00,
2013-01-14 09:21:00,75.4,64.1,30.13,ESE,123,0.0,0.0,68,0.00,,OVC,0.00,WeatherDisplay:10.37,2013-01-14 14:21:00,
2013-01-14 09:26:00,75.8,64.1,30.13,SE,132,13.8,13.8,67,0.00,,OVC,0.00,WeatherDisplay:10.37,2013-01-14 14:26:00,
2013-01-14 09:31:00,76.1,63.9,30.13,SE,145,16.1,16.1,66,0.00,,OVC,0.00,WeatherDisplay:10.37,2013-01-14 14:31:00,
2013-01-14 09:36:00,76.3,63.2,30.13,SE,142,16.1,16.1,64,0.00,,OVC,0.00,WeatherDisplay:10.37,2013-01-14 14:36:00,
2013-01-14 09:41:00,76.7,62.7,30.13,ESE,111,18.4,18.4,62,0.00,,OVC,0.00,WeatherDisplay:10.37,2013-01-14 14:41:00,
2013-01-14 09:46:00,77.0,63.0,30.13,NE,51,4.6,4.6,62,0.00,,OVC,0.00,WeatherDisplay:10.37,2013-01-14 14:46:00,
2013-01-14 09:51:00,76.5,63.4,30.13,SSE,160,6.0,6.0,64,0.00,,OVC,0.00,WeatherDisplay:10.37,2013-01-14 14:51:00,
2013-01-14 09:56:00,76.3,64.1,30.13,SE,142,6.9,6.9,66,0.00,,OVC,0.00,WeatherDisplay:10.37,2013-01-14 14:56:00,
2013-01-14 10:01:00,77.0,64.3,30.14,ESE,114,23.0,23.0,65,0.00,,OVC,0.00,WeatherDisplay:10.37,2013-01-14 15:01:00,
2013-01-14 10:06:00,76.8,64.6,30.14,SE,129,6.9,6.9,66,0.00,,OVC,0.00,WeatherDisplay:10.37,2013-01-14 15:06:00,
2013-01-14 10:11:00,77.0,64.8,30.14,SSE,154,20.7,20.7,66,0.00,,OVC,0.00,WeatherDisplay:10.37,2013-01-14 15:11:00,
2013-01-14 10:16:00,77.2,64.5,30.14,SSE,155,13.0,13.0,65,0.00,,OVC,0.00,WeatherDisplay:10.37,2013-01-14 15:16:00,
2013-01-14 10:21:00,76.8,63.7,30.14,East,95,3.5,3.5,64,0.00,,OVC,0.00,WeatherDisplay:10.37,2013-01-14 15:21:00,
2013-01-14 10:26:00,77.4,63.8,30.14,SSE,160,21.0,21.0,63,0.00,,OVC,0.00,WeatherDisplay:10.37,2013-01-14 15:26:00,
2013-01-14 10:31:00,77.6,63.1,30.14,ENE,65,8.1,8.1,61,0.00,,OVC,0.00,WeatherDisplay:10.37,2013-01-14 15:31:00,
2013-01-14 10:36:00,77.7,63.2,30.14,SE,143,17.3,17.3,61,0.00,,OVC,0.00,WeatherDisplay:10.37,2013-01-14 15:36:00,
2013-01-14 10:41:00,77.7,62.2,30.14,SE,128,31.1,31.1,59,0.00,,OVC,0.00,WeatherDisplay:10.37,2013-01-14 15:41:00,
2013-01-14 10:46:00,77.7,61.7,30.13,SE,146,35.7,35.7,58,0.00,,OVC,0.00,WeatherDisplay:10.37,2013-01-14 15:46:00,
2013-01-14 10:51:00,77.7,62.2,30.13,NE,48,1.1,2.8,59,0.00,,OVC,0.00,WeatherDisplay:10.37,2013-01-14 15:51:00,
2013-01-14 10:56:00,77.9,61.9,30.13,ENE,65,29.9,29.9,58,0.00,,OVC,0.00,WeatherDisplay:10.37,2013-01-14 15:56:00,
2013-01-14 11:01:00,77.6,62.1,30.13,SE,131,15.0,15.0,59,0.00,,OVC,0.00,WeatherDisplay:10.37,2013-01-14 16:01:00,
2013-01-14 11:06:00,77.6,61.7,30.13,SSE,152,28.0,28.0,58,0.00,,OVC,0.00,WeatherDisplay:10.37,2013-01-14 16:06:00,
2013-01-14 11:11:00,77.4,61.5,30.13,ESE,121,19.0,19.0,58,0.00,,OVC,0.00,WeatherDisplay:10.37,2013-01-14 16:11:00,
2013-01-14 11:17:00,77.6,62.6,30.13,SE,141,3.5,3.5,60,0.00,,OVC,0.00,WeatherDisplay:10.37,2013-01-14 16:17:00,
2013-01-14 11:22:00,77.7,61.3,30.13,ESE,121,26.5,26.5,57,0.00,,OVC,0.00,WeatherDisplay:10.37,2013-01-14 16:22:00,
2013-01-14 11:27:00,77.6,61.7,30.13,SE,145,14.0,14.0,58,0.00,,OVC,0.00,WeatherDisplay:10.37,2013-01-14 16:27:00,
2013-01-14 11:32:00,77.9,61.9,30.12,SSE,147,18.0,18.0,58,0.00,,OVC,0.00,WeatherDisplay:10.37,2013-01-14 16:32:00,
2013-01-14 11:37:00,78.3,60.8,30.12,SE,124,11.5,11.5,55,0.00,,OVC,0.00,WeatherDisplay:10.37,2013-01-14 16:37:00,
2013-01-14 11:42:00,78.1,61.1,30.12,SSE,159,21.9,21.9,56,0.00,,OVC,0.00,WeatherDisplay:10.37,2013-01-14 16:42:00,
2013-01-14 11:47:00,77.9,61.4,30.12,SE,138,11.5,11.5,57,0.00,,OVC,0.00,WeatherDisplay:10.37,2013-01-14 16:47:00,
2013-01-14 11:52:00,78.3,62.3,30.12,SSE,153,11.0,11.0,58,0.00,,OVC,0.00,WeatherDisplay:10.37,2013-01-14 16:52:00,
2013-01-14 11:57:00,78.1,61.1,30.12,SSE,156,20.0,21.7,56,0.00,,OVC,0.00,WeatherDisplay:10.37,2013-01-14 16:57:00,
2013-01-14 12:02:00,78.1,61.6,30.12,SE,130,18.0,18.0,57,0.00,,OVC,0.00,WeatherDisplay:10.37,2013-01-14 17:02:00,
2013-01-14 12:07:00,78.5,63.0,30.12,SE,139,0.0,0.0,59,0.00,,OVC,0.00,WeatherDisplay:10.37,2013-01-14 17:07:00,
2013-01-14 12:12:00,78.6,62.6,30.12,ENE,74,16.1,16.1,58,0.00,,OVC,0.00,WeatherDisplay:10.37,2013-01-14 17:12:00,
2013-01-14 12:17:00,78.3,61.8,30.11,South,184,13.8,13.8,57,0.00,,OVC,0.00,WeatherDisplay:10.37,2013-01-14 17:17:00,
2013-01-14 12:22:00,78.1,61.1,30.11,SSE,147,29.9,29.9,56,0.00,,OVC,0.00,WeatherDisplay:10.37,2013-01-14 17:22:00,
2013-01-14 12:27:00,78.3,61.8,30.11,SE,134,12.7,12.7,57,0.00,,OVC,0.00,WeatherDisplay:10.37,2013-01-14 17:27:00,
2013-01-14 12:32:00,78.8,62.3,30.10,SE,143,8.0,8.0,57,0.00,,OVC,0.00,WeatherDisplay:10.37,2013-01-14 17:32:00,
2013-01-14 12:37:00,79.0,61.5,30.10,SE,145,26.5,26.5,55,0.00,,OVC,0.00,WeatherDisplay:10.37,2013-01-14 17:37:00,
2013-01-14 12:42:00,78.8,61.8,30.10,SE,134,0.0,0.0,56,0.00,,OVC,0.00,WeatherDisplay:10.37,2013-01-14 17:42:00,
2013-01-14 12:47:00,78.6,62.1,30.10,SE,131,0.0,0.0,57,0.00,,OVC,0.00,WeatherDisplay:10.37,2013-01-14 17:47:00,
2013-01-14 12:52:00,78.8,62.3,30.10,SE,138,17.3,17.3,57,0.00,,OVC,0.00,WeatherDisplay:10.37,2013-01-14 17:52:00,
2013-01-14 12:57:00,79.2,62.1,30.10,SSE,159,16.1,16.1,56,0.00,,OVC,0.00,WeatherDisplay:10.37,2013-01-14 17:57:00,
2013-01-14 13:02:00,79.4,62.3,30.10,SSE,155,3.5,3.5,56,0.00,,OVC,0.00,WeatherDisplay:10.37,2013-01-14 18:02:00,
2013-01-14 13:07:00,79.2,62.1,30.10,NE,46,3.5,3.5,56,0.00,,OVC,0.00,WeatherDisplay:10.37,2013-01-14 18:07:00,
2013-01-14 13:12:00,79.2,62.7,30.10,NE,38,15.0,15.0,57,0.00,,OVC,0.00,WeatherDisplay:10.37,2013-01-14 18:12:00,
2013-01-14 13:17:00,79.6,62.5,30.10,SE,142,26.5,26.5,56,0.00,,OVC,0.00,WeatherDisplay:10.37,2013-01-14 18:17:00,
2013-01-14 13:22:00,79.4,62.3,30.10,SE,129,21.9,21.9,56,0.00,,OVC,0.00,WeatherDisplay:10.37,2013-01-14 18:22:00,
2013-01-14 13:27:00,79.2,62.7,30.10,SE,133,17.3,17.3,57,0.00,,OVC,0.00,WeatherDisplay:10.37,2013-01-14 18:27:00,
2013-01-14 13:32:00,79.4,62.3,30.09,SE,138,9.2,9.2,56,0.00,,OVC,0.00,WeatherDisplay:10.37,2013-01-14 18:32:00,
2013-01-14 13:37:00,79.2,62.1,30.09,SSE,159,12.7,12.7,56,0.00,,OVC,0.00,WeatherDisplay:10.37,2013-01-14 18:37:00,
2013-01-14 13:42:00,79.6,63.0,30.09,NE,42,11.5,11.5,57,0.00,,OVC,0.00,WeatherDisplay:10.37,2013-01-14 18:42:00,
2013-01-14 13:47:00,79.9,63.3,30.09,NE,53,9.2,9.2,57,0.00,,OVC,0.00,WeatherDisplay:10.37,2013-01-14 18:47:00,
2013-01-14 13:52:00,79.9,63.3,30.09,East,89,2.3,2.3,57,0.00,,OVC,0.00,WeatherDisplay:10.37,2013-01-14 18:52:00,
2013-01-14 13:57:00,79.8,63.2,30.09,East,88,0.0,0.0,57,0.00,,OVC,0.00,WeatherDisplay:10.37,2013-01-14 18:57:00,
2013-01-14 14:02:00,80.1,63.5,30.10,SE,125,3.5,3.5,57,0.00,,OVC,0.00,WeatherDisplay:10.37,2013-01-14 19:02:00,
2013-01-14 14:07:00,80.1,63.0,30.10,SSE,161,19.6,19.6,56,0.00,,OVC,0.00,WeatherDisplay:10.37,2013-01-14 19:07:00,
2013-01-14 14:12:00,79.9,63.3,30.10,SSE,164,6.9,6.9,57,0.00,,OVC,0.00,WeatherDisplay:10.37,2013-01-14 19:12:00,
2013-01-14 14:17:00,79.8,63.7,30.10,NE,44,0.0,0.0,58,0.00,,OVC,0.00,WeatherDisplay:10.37,2013-01-14 19:17:00,
2013-01-14 14:22:00,79.4,62.8,30.10,ENE,67,9.2,0.0,57,0.00,,OVC,0.00,WeatherDisplay:10.37,2013-01-14 19:22:00,
2013-01-14 14:27:00,79.6,63.0,30.10,SSE,157,0.0,0.0,57,0.00,,OVC,0.00,WeatherDisplay:10.37,2013-01-14 19:27:00,
2013-01-14 14:32:00,79.4,63.3,30.09,ESE,117,5.8,5.8,58,0.00,,OVC,0.00,WeatherDisplay:10.37,2013-01-14 19:32:00,
2013-01-14 14:37:00,79.4,63.3,30.09,SSE,153,11.5,11.5,58,0.00,,OVC,0.00,WeatherDisplay:10.37,2013-01-14 19:37:00,
2013-01-14 14:42:00,79.2,63.1,30.09,SE,132,16.1,16.1,58,0.00,,OVC,0.00,WeatherDisplay:10.37,2013-01-14 19:42:00,
2013-01-14 14:47:00,79.2,63.6,30.09,NE,39,5.8,5.8,59,0.00,,OVC,0.00,WeatherDisplay:10.37,2013-01-14 19:47:00,
2013-01-14 14:52:00,79.4,63.8,30.09,SSE,148,8.0,8.0,59,0.00,,OVC,0.00,WeatherDisplay:10.37,2013-01-14 19:52:00,
2013-01-14 14:57:00,79.6,63.5,30.09,SE,130,4.6,4.6,58,0.00,,OVC,0.00,WeatherDisplay:10.37,2013-01-14 19:57:00,
2013-01-14 15:02:00,79.8,63.7,30.09,SE,143,8.0,8.0,58,0.00,,OVC,0.00,WeatherDisplay:10.37,2013-01-14 20:02:00,
2013-01-14 15:07:00,79.4,62.3,30.09,SSE,150,20.7,20.7,56,0.00,,OVC,0.00,WeatherDisplay:10.37,2013-01-14 20:07:00,
2013-01-14 15:12:00,79.2,62.7,30.09,SE,143,16.1,16.1,57,0.00,,OVC,0.00,WeatherDisplay:10.37,2013-01-14 20:12:00,
2013-01-14 15:17:00,79.4,62.8,30.09,SE,126,12.7,12.7,57,0.00,,OVC,0.00,WeatherDisplay:10.37,2013-01-14 20:17:00,
2013-01-14 15:22:00,79.6,63.0,30.09,SE,139,3.5,3.5,57,0.00,,OVC,0.00,WeatherDisplay:10.37,2013-01-14 20:22:00,
2013-01-14 15:27:00,79.6,63.0,30.09,SE,129,3.5,3.5,57,0.00,,OVC,0.00,WeatherDisplay:10.37,2013-01-14 20:27:00,
2013-01-14 15:32:00,79.4,62.3,30.09,SE,141,20.7,20.7,56,0.00,,OVC,0.00,WeatherDisplay:10.37,2013-01-14 20:32:00,
2013-01-14 15:37:00,78.8,62.3,30.09,SE,128,16.1,16.1,57,0.00,,OVC,0.00,WeatherDisplay:10.37,2013-01-14 20:37:00,
2013-01-14 15:42:00,78.6,62.6,30.09,ESE,112,1.1,0.0,58,0.00,,OVC,0.00,WeatherDisplay:10.37,2013-01-14 20:42:00,
2013-01-14 15:47:00,79.0,63.4,30.10,SE,132,1.1,2.0,59,0.00,,OVC,0.00,WeatherDisplay:10.37,2013-01-14 20:47:00,
2013-01-14 15:52:00,78.8,63.3,30.10,SE,133,3.5,3.5,59,0.00,,OVC,0.00,WeatherDisplay:10.37,2013-01-14 20:52:00,
2013-01-14 15:57:00,79.0,63.4,30.10,ENE,58,6.9,6.9,59,0.00,,OVC,0.00,WeatherDisplay:10.37,2013-01-14 20:57:00,
2013-01-14 16:02:00,78.6,62.6,30.10,SE,131,17.3,17.3,58,0.00,,OVC,0.00,WeatherDisplay:10.37,2013-01-14 21:02:00,
2013-01-14 16:07:00,78.5,63.0,30.10,NE,46,11.5,11.5,59,0.00,,OVC,0.00,WeatherDisplay:10.37,2013-01-14 21:07:00,
2013-01-14 16:12:00,78.1,63.1,30.10,East,84,0.0,0.0,60,0.00,,OVC,0.00,WeatherDisplay:10.37,2013-01-14 21:12:00,
2013-01-14 16:17:00,77.4,63.4,30.11,SE,145,16.1,16.1,62,0.00,,OVC,0.00,WeatherDisplay:10.37,2013-01-14 21:17:00,
2013-01-14 16:22:00,76.8,62.8,30.11,ESE,123,24.2,24.2,62,0.00,,OVC,0.00,WeatherDisplay:10.37,2013-01-14 21:22:00,
2013-01-14 16:27:00,77.2,63.2,30.11,SE,133,8.1,8.1,62,0.00,,OVC,0.00,WeatherDisplay:10.37,2013-01-14 21:27:00,
2013-01-14 16:32:00,77.6,64.0,30.11,ESE,103,0.0,0.0,63,0.00,,OVC,0.00,WeatherDisplay:10.37,2013-01-14 21:32:00,
2013-01-14 16:37:00,77.4,62.4,30.11,ENE,76,0.0,0.1,60,0.00,,OVC,0.00,WeatherDisplay:10.37,2013-01-14 21:37:00,
2013-01-14 16:42:00,77.0,63.0,30.11,ESE,105,1.1,0.0,62,0.00,,OVC,0.00,WeatherDisplay:10.37,2013-01-14 21:42:00,
2013-01-14 16:48:00,76.8,62.8,30.11,ESE,108,0.0,0.0,62,0.00,,OVC,0.00,WeatherDisplay:10.37,2013-01-14 21:48:00,
2013-01-14 16:53:00,76.7,63.2,30.11,ESE,121,4.6,4.6,63,0.00,,OVC,0.00,WeatherDisplay:10.37,2013-01-14 21:53:00,
2013-01-14 16:58:00,76.3,63.2,30.11,East,90,0.0,0.0,64,0.00,,OVC,0.00,WeatherDisplay:10.37,2013-01-14 21:58:00,
2013-01-14 17:03:00,76.3,63.7,30.12,SSE,167,0.0,0.0,65,0.00,,OVC,0.00,WeatherDisplay:10.37,2013-01-14 22:03:00,
2013-01-14 17:08:00,76.3,63.7,30.12,East,89,0.0,0.0,65,0.00,,OVC,0.00,WeatherDisplay:10.37,2013-01-14 22:08:00,
2013-01-14 17:13:00,76.1,63.0,30.12,SE,140,11.5,11.5,64,0.00,,OVC,0.00,WeatherDisplay:10.37,2013-01-14 22:13:00,
2013-01-14 17:18:00,76.0,63.4,30.12,SE,138,11.5,11.5,65,0.00,,OVC,0.00,WeatherDisplay:10.37,2013-01-14 22:18:00,
2013-01-14 17:23:00,75.8,63.6,30.12,SE,131,0.0,0.0,66,0.00,,OVC,0.00,WeatherDisplay:10.37,2013-01-14 22:23:00,
2013-01-14 17:28:00,75.6,63.4,30.12,SSE,158,0.0,0.0,66,0.00,,OVC,0.00,WeatherDisplay:10.37,2013-01-14 22:28:00,
2013-01-14 17:33:00,75.3,63.6,30.12,SE,140,0.0,0.0,67,0.00,,OVC,0.00,WeatherDisplay:10.37,2013-01-14 22:33:00,
2013-01-14 17:38:00,75.1,63.4,30.12,SE,146,0.0,0.2,67,0.00,,OVC,0.00,WeatherDisplay:10.37,2013-01-14 22:38:00,
2013-01-14 17:43:00,74.9,63.6,30.12,SSE,147,0.0,0.0,68,0.00,,OVC,0.00,WeatherDisplay:10.37,2013-01-14 22:43:00,
2013-01-14 17:48:00,74.7,63.4,30.12,SE,141,2.3,2.3,68,0.00,,OVC,0.00,WeatherDisplay:10.37,2013-01-14 22:48:00,
2013-01-14 17:53:00,74.6,63.8,30.12,ESE,123,3.5,0.0,69,0.00,,OVC,0.00,WeatherDisplay:10.37,2013-01-14 22:53:00,
2013-01-14 17:58:00,74.4,63.6,30.12,ENE,78,0.0,0.0,69,0.00,,OVC,0.00,WeatherDisplay:10.37,2013-01-14 22:58:00,
2013-01-14 18:03:00,74.2,63.8,30.13,ESE,113,0.0,0.0,70,0.00,CLR,OVC,0.00,WeatherDisplay:10.37,2013-01-14 23:03:00,
2013-01-14 18:08:00,74.0,63.6,30.13,ESE,113,0.0,0.0,70,0.00,CLR,OVC,0.00,WeatherDisplay:10.37,2013-01-14 23:08:00,
2013-01-14 18:13:00,73.9,63.5,30.13,ESE,113,0.0,0.0,70,0.00,CLR,OVC,0.00,WeatherDisplay:10.37,2013-01-14 23:13:00,
2013-01-14 18:18:00,73.7,63.7,30.13,ESE,113,0.0,0.0,71,0.00,CLR,OVC,0.00,WeatherDisplay:10.37,2013-01-14 23:18:00,
2013-01-14 18:23:00,73.5,63.5,30.13,ESE,113,0.0,0.0,71,0.00,CLR,OVC,0.00,WeatherDisplay:10.37,2013-01-14 23:23:00,
2013-01-14 18:28:00,73.2,63.2,30.13,ESE,113,0.0,0.0,71,0.00,CLR,OVC,0.00,WeatherDisplay:10.37,2013-01-14 23:28:00,
2013-01-14 18:33:00,73.0,63.4,30.13,ESE,113,0.0,0.0,72,0.00,CLR,OVC,0.00,WeatherDisplay:10.37,2013-01-14 23:33:00,
2013-01-14 18:38:00,72.7,63.1,30.13,ESE,113,0.0,0.0,72,0.00,CLR,OVC,0.00,WeatherDisplay:10.37,2013-01-14 23:38:00,
2013-01-14 18:43:00,72.3,63.2,30.13,ESE,113,0.0,0.0,73,0.00,CLR,OVC,0.00,WeatherDisplay:10.37,2013-01-14 23:43:00,
2013-01-14 18:48:00,72.1,63.0,30.13,ESE,113,0.0,0.0,73,0.00,CLR,OVC,0.00,WeatherDisplay:10.37,2013-01-14 23:48:00,
2013-01-14 18:53:00,71.8,63.1,30.13,ESE,113,0.0,0.0,74,0.00,CLR,OVC,0.00,WeatherDisplay:10.37,2013-01-14 23:53:00,
2013-01-14 18:58:00,71.5,62.8,30.13,ESE,113,0.0,0.0,74,0.00,CLR,OVC,0.00,WeatherDisplay:10.37,2013-01-14 23:58:00,
2013-01-14 19:03:00,71.3,63.0,30.13,ESE,113,0.0,0.0,75,0.00,,OVC,0.00,WeatherDisplay:10.37,2013-01-15 00:03:00,
2013-01-14 19:08:00,70.9,63.0,30.13,ESE,113,0.0,0.0,76,0.00,,OVC,0.00,WeatherDisplay:10.37,2013-01-15 00:08:00,
2013-01-14 19:13:00,70.8,63.2,30.13,ESE,113,0.0,0.0,77,0.00,,OVC,0.00,WeatherDisplay:10.37,2013-01-15 00:13:00,
2013-01-14 19:18:00,70.6,63.0,30.14,ESE,113,0.0,0.0,77,0.00,,OVC,0.00,WeatherDisplay:10.37,2013-01-15 00:18:00,
2013-01-14 19:23:00,70.4,63.2,30.14,ESE,113,0.0,0.0,78,0.00,,OVC,0.00,WeatherDisplay:10.37,2013-01-15 00:23:00,
2013-01-14 19:28:00,70.3,63.1,30.14,ESE,113,0.0,0.0,78,0.00,,OVC,0.00,WeatherDisplay:10.37,2013-01-15 00:28:00,
2013-01-14 19:33:00,70.3,63.5,30.14,ESE,113,0.0,0.0,79,0.00,,OVC,0.00,WeatherDisplay:10.37,2013-01-15 00:33:00,
2013-01-14 19:38:00,70.3,63.8,30.14,ESE,113,0.0,0.0,80,0.00,,OVC,0.00,WeatherDisplay:10.37,2013-01-15 00:38:00,
2013-01-14 19:43:00,70.1,63.6,30.14,ESE,113,0.0,0.0,80,0.00,,OVC,0.00,WeatherDisplay:10.37,2013-01-15 00:43:00,
2013-01-14 19:48:00,70.1,63.6,30.14,ESE,113,0.0,0.0,80,0.00,,OVC,0.00,WeatherDisplay:10.37,2013-01-15 00:48:00,
2013-01-14 19:53:00,69.9,63.8,30.14,ESE,113,0.0,0.0,81,0.00,,OVC,0.00,WeatherDisplay:10.37,2013-01-15 00:53:00,
2013-01-14 19:58:00,69.9,63.8,30.14,ESE,113,0.0,0.0,81,0.00,,OVC,0.00,WeatherDisplay:10.37,2013-01-15 00:58:00,
2013-01-14 20:03:00,69.8,63.7,30.13,ESE,113,0.0,0.0,81,0.00,,OVC,0.00,WeatherDisplay:10.37,2013-01-15 01:03:00,
2013-01-14 20:08:00,69.8,63.7,30.13,ESE,113,0.0,0.0,81,0.00,,OVC,0.00,WeatherDisplay:10.37,2013-01-15 01:08:00,
2013-01-14 20:13:00,69.4,63.3,30.13,ESE,113,0.0,0.0,81,0.00,,OVC,0.00,WeatherDisplay:10.37,2013-01-15 01:13:00,
2013-01-14 20:18:00,69.3,63.2,30.13,ESE,113,0.0,0.0,81,0.00,,OVC,0.00,WeatherDisplay:10.37,2013-01-15 01:18:00,
2013-01-14 20:23:00,69.3,63.6,30.13,ESE,113,0.0,0.0,82,0.00,,OVC,0.00,WeatherDisplay:10.37,2013-01-15 01:23:00,
2013-01-14 20:28:00,69.3,63.6,30.13,ESE,113,0.0,0.0,82,0.00,,OVC,0.00,WeatherDisplay:10.37,2013-01-15 01:28:00,
2013-01-14 20:33:00,69.1,63.7,30.13,ESE,113,0.0,0.0,83,0.00,,OVC,0.00,WeatherDisplay:10.37,2013-01-15 01:33:00,
2013-01-14 20:38:00,69.1,63.7,30.13,ESE,113,0.0,0.0,83,0.00,,OVC,0.00,WeatherDisplay:10.37,2013-01-15 01:38:00,
2013-01-14 20:43:00,68.9,63.5,30.13,ESE,113,0.0,0.0,83,0.00,,OVC,0.00,WeatherDisplay:10.37,2013-01-15 01:43:00,
2013-01-14 20:48:00,68.9,63.5,30.13,ESE,113,0.0,0.0,83,0.00,,OVC,0.00,WeatherDisplay:10.37,2013-01-15 01:48:00,
2013-01-14 20:53:00,68.8,63.8,30.13,ESE,113,0.0,0.0,84,0.00,,OVC,0.00,WeatherDisplay:10.37,2013-01-15 01:53:00,
2013-01-14 20:58:00,68.6,63.6,30.13,ESE,113,0.0,0.0,84,0.00,,OVC,0.00,WeatherDisplay:10.37,2013-01-15 01:58:00,
2013-01-14 21:03:00,68.4,63.4,30.13,ESE,113,0.0,0.0,84,0.00,,OVC,0.00,WeatherDisplay:10.37,2013-01-15 02:03:00,
2013-01-14 21:08:00,68.4,63.4,30.13,ESE,113,0.0,0.0,84,0.00,,OVC,0.00,WeatherDisplay:10.37,2013-01-15 02:08:00,
2013-01-14 21:13:00,68.3,63.3,30.13,ESE,113,0.0,0.0,84,0.00,,OVC,0.00,WeatherDisplay:10.37,2013-01-15 02:13:00,
2013-01-14 21:18:00,68.1,63.4,30.13,ESE,113,0.0,0.0,85,0.00,,OVC,0.00,WeatherDisplay:10.37,2013-01-15 02:18:00,
2013-01-14 21:23:00,67.9,63.2,30.13,ESE,113,0.0,0.0,85,0.00,,OVC,0.00,WeatherDisplay:10.37,2013-01-15 02:23:00,
2013-01-14 21:28:00,67.8,63.1,30.13,ESE,113,0.0,0.0,85,0.00,,OVC,0.00,WeatherDisplay:10.37,2013-01-15 02:28:00,
2013-01-14 21:33:00,67.8,63.1,30.12,ESE,113,0.0,0.0,85,0.00,,OVC,0.00,WeatherDisplay:10.37,2013-01-15 02:33:00,
2013-01-14 21:38:00,67.6,62.9,30.12,ESE,113,0.0,0.0,85,0.00,,OVC,0.00,WeatherDisplay:10.37,2013-01-15 02:38:00,
2013-01-14 21:43:00,67.9,63.6,30.12,ESE,113,0.0,0.0,86,0.00,,OVC,0.00,WeatherDisplay:10.37,2013-01-15 02:43:00,
2013-01-14 21:48:00,67.9,63.6,30.12,ESE,113,0.0,0.0,86,0.00,,OVC,0.00,WeatherDisplay:10.37,2013-01-15 02:48:00,
2013-01-14 21:53:00,67.9,63.6,30.12,ESE,113,0.0,0.0,86,0.00,,OVC,0.00,WeatherDisplay:10.37,2013-01-15 02:53:00,
2013-01-14 21:58:00,67.9,63.6,30.12,ESE,113,0.0,0.0,86,0.00,,OVC,0.00,WeatherDisplay:10.37,2013-01-15 02:58:00,
2013-01-14 22:03:00,67.9,63.9,30.12,ESE,113,0.0,0.0,87,0.00,,OVC,0.00,WeatherDisplay:10.37,2013-01-15 03:03:00,
2013-01-14 22:08:00,67.9,63.6,30.12,ESE,113,0.0,0.0,86,0.00,,OVC,0.00,WeatherDisplay:10.37,2013-01-15 03:08:00,
2013-01-14 22:13:00,67.9,63.9,30.12,ESE,113,0.0,0.0,87,0.00,,OVC,0.00,WeatherDisplay:10.37,2013-01-15 03:13:00,
2013-01-14 22:18:00,67.9,63.9,30.12,ESE,113,0.0,0.0,87,0.00,,OVC,0.00,WeatherDisplay:10.37,2013-01-15 03:18:00,
2013-01-14 22:23:00,67.8,63.8,30.12,ESE,113,0.0,0.0,87,0.00,,OVC,0.00,WeatherDisplay:10.37,2013-01-15 03:23:00,
2013-01-14 22:28:00,67.8,63.8,30.12,ESE,113,0.0,0.0,87,0.00,,OVC,0.00,WeatherDisplay:10.37,2013-01-15 03:28:00,
2013-01-14 22:34:00,67.8,63.8,30.12,ESE,113,0.0,0.0,87,0.00,,OVC,0.00,WeatherDisplay:10.37,2013-01-15 03:34:00,
2013-01-14 22:39:00,67.6,63.6,30.12,ESE,113,0.0,0.0,87,0.00,,OVC,0.00,WeatherDisplay:10.37,2013-01-15 03:39:00,
2013-01-14 22:44:00,67.4,63.4,30.12,ESE,113,0.0,0.0,87,0.00,,OVC,0.00,WeatherDisplay:10.37,2013-01-15 03:44:00,
2013-01-14 22:49:00,67.4,63.4,30.12,ESE,113,0.0,0.0,87,0.00,,OVC,0.00,WeatherDisplay:10.37,2013-01-15 03:49:00,
2013-01-14 22:54:00,67.4,63.4,30.12,ESE,113,0.0,0.0,87,0.00,,OVC,0.00,WeatherDisplay:10.37,2013-01-15 03:54:00,
2013-01-14 22:59:00,67.3,63.6,30.12,ESE,113,0.0,0.0,88,0.00,,OVC,0.00,WeatherDisplay:10.37,2013-01-15 03:59:00,
2013-01-14 23:04:00,67.3,63.6,30.12,ESE,113,0.0,0.0,88,0.00,,OVC,0.00,WeatherDisplay:10.37,2013-01-15 04:04:00,
2013-01-14 23:09:00,67.1,63.4,30.12,ESE,113,0.0,0.0,88,0.00,,OVC,0.00,WeatherDisplay:10.37,2013-01-15 04:09:00,
2013-01-14 23:14:00,67.1,63.4,30.12,ESE,113,0.0,0.0,88,0.00,,OVC,0.00,WeatherDisplay:10.37,2013-01-15 04:14:00,
2013-01-14 23:19:00,67.3,63.6,30.11,ESE,113,0.0,0.0,88,0.00,,OVC,0.00,WeatherDisplay:10.37,2013-01-15 04:19:00,
2013-01-14 23:24:00,67.1,63.4,30.11,ESE,113,0.0,0.0,88,0.00,,OVC,0.00,WeatherDisplay:10.37,2013-01-15 04:24:00,
2013-01-14 23:29:00,67.1,63.7,30.11,ESE,113,0.0,0.0,89,0.00,,OVC,0.00,WeatherDisplay:10.37,2013-01-15 04:29:00,
2013-01-14 23:34:00,66.9,63.6,30.11,ESE,113,0.0,0.0,89,0.00,,OVC,0.00,WeatherDisplay:10.37,2013-01-15 04:34:00,
2013-01-14 23:39:00,66.9,63.6,30.11,ESE,113,0.0,0.0,89,0.00,,OVC,0.00,WeatherDisplay:10.37,2013-01-15 04:39:00,
2013-01-14 23:44:00,66.8,63.5,30.11,ESE,113,0.0,0.0,89,0.00,,OVC,0.00,WeatherDisplay:10.37,2013-01-15 04:44:00,
2013-01-14 23:49:00,66.8,63.5,30.10,ESE,113,0.0,0.0,89,0.00,,OVC,0.00,WeatherDisplay:10.37,2013-01-15 04:49:00,
2013-01-14 23:54:00,66.8,63.5,30.10,ESE,113,0.0,0.0,89,0.00,,OVC,0.00,WeatherDisplay:10.37,2013-01-15 04:54:00,
2013-01-14 23:59:00,66.8,63.5,30.10,ESE,113,0.0,0.0,89,0.00,,OVC,0.00,WeatherDisplay:10.37,2013-01-15 04:59:00,